Flag for U.S.A. Weather past 2 weeks in Shreveport, Louisiana, U.S.A.

65 °F

Passing clouds.

Feels Like: 65 °F
Forecast: 61 / 86 °F
Wind: 5 mph from Northwest

Location: Shreveport Regional Airport

Current Time: Oct 13, 2015 at 9:01:21 AM

Latest Report: Oct 13, 2015 at 7:56 AM

Visibility: 10 mi

Pressure: 29.95 "Hg

Humidity: 63%

Dew point: 52 °F

Location of ShreveportLocation

Historic Weather in Shreveport — Graph


Shreveport temperature yesterday

Maximum temperature yesterday: 94 °F (at 3:56 PM)
Minimum temperature yesterday: 70 °F (at 4:56 AM)
Average temperature yesterday: 81 °F

Past Weeks' High & Low Weather Summary

High94 °F (Oct 12, 3:56 PM)90% (Oct 7, 7:56 AM)30.20 "Hg (Oct 7, 7:56 AM)
Low52 °F (Oct 11, 6:56 AM)25% (Oct 11, 2:56 PM)29.73 "Hg (Oct 12, 3:56 PM)
Average74 °F60%29.97 "Hg
* Reported Sep 28 7:56 AM — Oct 13 7:56 AM, Shreveport, Weather by CustomWeather, © 2015

Note: Actual official high and low records may vary slightly from our data, if they occured in-between our weather recording intervals... More about our weather records


Shreveport weather history for previous 24 hours

Time TempWeatherWind HumidityBarometerVisibility
7:56 AM
Tue, Oct 13
65 °FPassing clouds.5 mph63%29.95 "Hg10 mi
6:56 AM64 °FPassing clouds.No wind65%29.92 "Hg10 mi
5:56 AM71 °FPassing clouds.6 mph51%29.91 "Hg10 mi
4:56 AM73 °FClear.5 mph46%29.89 "Hg10 mi
3:56 AM75 °FPassing clouds.7 mph43%29.88 "Hg10 mi
2:56 AM77 °FClear.9 mph45%29.86 "Hg10 mi
1:56 AM80 °FPassing clouds.13 mph51%29.85 "Hg10 mi
12:56 AM81 °FPartly cloudy.9 mph62%29.84 "Hg10 mi
11:56 PM
Mon, Oct 12
81 °FOvercast.8 mph65%29.82 "Hg10 mi
10:56 PM83 °FPassing clouds.9 mph61%29.80 "Hg10 mi
9:56 PM83 °FPassing clouds.5 mph59%29.80 "Hg10 mi
8:56 PM85 °FPartly cloudy.5 mph55%29.78 "Hg10 mi
7:56 PM87 °FMostly cloudy.6 mph51%29.77 "Hg10 mi
6:56 PM89 °FPartly sunny.6 mph46%29.75 "Hg10 mi
5:56 PM91 °FScattered clouds.7 mph42%29.74 "Hg10 mi
4:56 PM93 °FScattered clouds.9 mph40%29.74 "Hg10 mi
3:56 PM94 °FScattered clouds.10 mph38%29.73 "Hg10 mi
2:56 PM93 °FPartly sunny.12 mph41%29.74 "Hg10 mi
1:56 PM92 °FScattered clouds.10 mph43%29.77 "Hg10 mi
12:56 PM92 °FScattered clouds.14 mph43%29.80 "Hg10 mi
11:56 AM87 °FScattered clouds.13 mph51%29.82 "Hg10 mi
10:56 AM84 °FPassing clouds.15 mph55%29.83 "Hg10 mi
9:56 AM80 °FScattered clouds.13 mph62%29.83 "Hg10 mi
Weather by CustomWeather, © 2015

See weather overviewHow to use our weather pages